When you browse on this site, cookies collect data to enhance your experience and personalize the content and advertising you see.
Visit our Privacy Policy to learn more. By continuing to use the site, you agree to this use of cookies and data.
  • In Hungary
  • List of Countries
  • For 7 days
  • Water Temperature
  • Weather Map
  • News
  • Weather Widgets
  • user-avatar
    Login

    Hourly Weather Beltno

    Today, 8 December, Sunday

    Time Temperature Precipitation Wind Pressure Humidity
    00:00 +5°C° 0.1 mm 5 mps 745 mmHg 91%
    01:00 +5°C° 0 mm 4 mps 745 mmHg 90%
    02:00 +5°C° 0.2 mm 5 mps 744 mmHg 89%
    03:00 +5°C° 0.2 mm 5 mps 744 mmHg 88%
    04:00 +4°C° 0.2 mm 6 mps 743 mmHg 87%
    05:00 +4°C° 0 mm 6 mps 743 mmHg 87%
    06:00 +4°C° 0 mm 6 mps 743 mmHg 87%
    07:00 +3°C° 0 mm 6 mps 743 mmHg 87%
    08:00 +3°C° 0 mm 7 mps 742 mmHg 86%
    09:00 +4°C° 0 mm 8 mps 741 mmHg 84%
    10:00 +3°C° 0 mm 9 mps 740 mmHg 83%
    11:00 +5°C° 0 mm 9 mps 739 mmHg 81%
    12:00 +5°C° 0 mm 9 mps 739 mmHg 79%
    13:00 +5°C° 0 mm 8 mps 738 mmHg 76%
    14:00 +6°C° 0.7 mm 9 mps 737 mmHg 80%
    15:00 +6°C° 0.7 mm 9 mps 737 mmHg 83%
    16:00 +6°C° 0.7 mm 9 mps 736 mmHg 87%
    17:00 +6°C° 0.2 mm 9 mps 736 mmHg 85%
    18:00 +6°C° 0.2 mm 9 mps 736 mmHg 84%
    19:00 +7°C° 0.2 mm 8 mps 736 mmHg 82%
    20:00 +6°C° 0.2 mm 8 mps 736 mmHg 82%
    21:00 +6°C° 0.2 mm 7 mps 736 mmHg 81%
    22:00 +7°C° 0.2 mm 6 mps 736 mmHg 80%
    23:00 +5°C° 0 mm 6 mps 736 mmHg 82%

    Tomorrow, 9 December, Monday

    Time Temperature Precipitation Wind Pressure Humidity
    00:00 +5°C° 0 mm 6 mps 736 mmHg 83%
    01:00 +4°C° 0 mm 6 mps 736 mmHg 84%
    02:00 +4°C° 0 mm 6 mps 736 mmHg 84%
    03:00 +3°C° 0 mm 6 mps 736 mmHg 84%
    04:00 +3°C° 0 mm 6 mps 736 mmHg 84%
    05:00 +3°C° 0.1 mm 6 mps 736 mmHg 84%
    06:00 +3°C° 0.1 mm 6 mps 737 mmHg 84%
    07:00 +3°C° 0.1 mm 6 mps 737 mmHg 83%
    08:00 +3°C° 0 mm 6 mps 737 mmHg 82%
    09:00 +3°C° 0 mm 7 mps 737 mmHg 81%
    10:00 +3°C° 0 mm 7 mps 738 mmHg 79%
    11:00 +4°C° 0 mm 7 mps 738 mmHg 77%
    12:00 +4°C° 0 mm 7 mps 738 mmHg 74%
    13:00 +5°C° 0 mm 6 mps 738 mmHg 72%
    14:00 +4°C° 0 mm 6 mps 738 mmHg 74%
    15:00 +3°C° 0 mm 5 mps 738 mmHg 77%
    16:00 +4°C° 0 mm 4 mps 738 mmHg 80%
    17:00 +3°C° 0 mm 5 mps 738 mmHg 81%
    18:00 +3°C° 0 mm 5 mps 739 mmHg 83%
    19:00 +3°C° 0 mm 5 mps 739 mmHg 84%
    20:00 +3°C° 0.2 mm 5 mps 739 mmHg 85%
    21:00 +3°C° 0.2 mm 5 mps 740 mmHg 87%
    22:00 +3°C° 0.2 mm 5 mps 740 mmHg 88%
    23:00 +2°C° 0.1 mm 5 mps 740 mmHg 83%

    Day after tomorrow, 10 December, Tuesday

    Time Temperature Precipitation Wind Pressure Humidity
    00:00 +2°C° 0.1 mm 5 mps 741 mmHg 77%
    01:00 +1°C° 0.1 mm 6 mps 741 mmHg 72%
    02:00 +1°C° 0.1 mm 6 mps 741 mmHg 79%
    03:00 0°C° 0.1 mm 7 mps 742 mmHg 86%
    04:00 -1°C° 0.1 mm 8 mps 742 mmHg 93%
    05:00 0°C° 0.9 mm 8 mps 743 mmHg 91%
    06:00 +1°C° 0.9 mm 9 mps 744 mmHg 88%
    07:00 +1°C° 0.9 mm 9 mps 745 mmHg 85%
    08:00 +1°C° 0.2 mm 9 mps 746 mmHg 84%
    09:00 +1°C° 0.2 mm 9 mps 748 mmHg 83%
    10:00 0°C° 0.2 mm 9 mps 749 mmHg 82%
    11:00 0°C° 0 mm 8 mps 750 mmHg 80%
    12:00 0°C° 0 mm 7 mps 751 mmHg 79%
    13:00 +1°C° 0 mm 6 mps 752 mmHg 77%
    14:00 0°C° 0 mm 5 mps 753 mmHg 76%
    15:00 -1°C° 0 mm 4 mps 754 mmHg 75%
    16:00 0°C° 0 mm 3 mps 754 mmHg 74%
    17:00 -1°C° 0 mm 2 mps 755 mmHg 73%
    18:00 -1°C° 0 mm 2 mps 755 mmHg 73%
    19:00 +1°C° 0 mm 1 mps 755 mmHg 72%
    20:00 -1°C° 0 mm 2 mps 755 mmHg 73%
    21:00 -2°C° 0 mm 2 mps 755 mmHg 73%
    22:00 -2°C° 0 mm 2 mps 755 mmHg 73%
    23:00 -2°C° 0 mm 3 mps 755 mmHg 71%

    11 December, Wednesday

    Time Temperature Precipitation Wind Pressure Humidity
    00:00 -2°C° 0 mm 3 mps 754 mmHg 69%
    01:00 -3°C° 0 mm 4 mps 754 mmHg 68%
    02:00 -4°C° 0 mm 5 mps 753 mmHg 66%
    03:00 -2°C° 0 mm 5 mps 752 mmHg 64%
    04:00 -3°C° 0 mm 6 mps 752 mmHg 62%
    05:00 -3°C° 0 mm 6 mps 751 mmHg 64%
    06:00 -3°C° 0 mm 6 mps 751 mmHg 66%
    07:00 -3°C° 0 mm 7 mps 750 mmHg 68%
    08:00 -2°C° 0 mm 7 mps 750 mmHg 66%
    09:00 -2°C° 0 mm 7 mps 749 mmHg 65%
    10:00 -2°C° 0 mm 7 mps 749 mmHg 63%
    11:00 -1°C° 0 mm 7 mps 749 mmHg 61%
    12:00 -1°C° 0 mm 7 mps 748 mmHg 59%
    13:00 -1°C° 0 mm 7 mps 748 mmHg 57%
    14:00 -1°C° 0.1 mm 6 mps 747 mmHg 58%
    15:00 -2°C° 0.1 mm 6 mps 746 mmHg 59%
    16:00 -1°C° 0.1 mm 5 mps 745 mmHg 61%
    17:00 -2°C° 0.1 mm 6 mps 745 mmHg 62%
    18:00 -2°C° 0.1 mm 6 mps 744 mmHg 63%
    19:00 -2°C° 0.1 mm 6 mps 744 mmHg 64%
    20:00 -2°C° 0.2 mm 6 mps 743 mmHg 65%
    21:00 -2°C° 0.2 mm 6 mps 743 mmHg 65%
    22:00 -2°C° 0.2 mm 7 mps 742 mmHg 66%
    23:00 -2°C° 0.2 mm 7 mps 742 mmHg 71%

    12 December, Thursday

    Time Temperature Precipitation Wind Pressure Humidity
    00:00 -3°C° 0.2 mm 6 mps 741 mmHg 77%
    01:00 -3°C° 0.2 mm 6 mps 740 mmHg 82%
    02:00 -2°C° 0.4 mm 6 mps 740 mmHg 87%
    03:00 -2°C° 0.4 mm 6 mps 739 mmHg 92%
    04:00 0°C° 0.4 mm 5 mps 739 mmHg 97%
    05:00 -1°C° 0.1 mm 6 mps 739 mmHg 96%
    06:00 +1°C° 0.1 mm 6 mps 739 mmHg 95%
    07:00 +1°C° 0.1 mm 6 mps 740 mmHg 94%
    08:00 +1°C° 0 mm 6 mps 740 mmHg 93%
    09:00 +1°C° 0 mm 5 mps 741 mmHg 91%
    10:00 +1°C° 0 mm 5 mps 741 mmHg 90%
    11:00 +1°C° 0 mm 5 mps 742 mmHg 88%
    12:00 +1°C° 0 mm 5 mps 742 mmHg 86%
    13:00 +1°C° 0 mm 5 mps 742 mmHg 83%
    14:00 +1°C° 0 mm 5 mps 742 mmHg 86%
    15:00 0°C° 0 mm 4 mps 742 mmHg 89%
    16:00 0°C° 0 mm 4 mps 742 mmHg 91%
    17:00 0°C° 0.1 mm 4 mps 742 mmHg 93%
    18:00 0°C° 0.1 mm 5 mps 742 mmHg 94%
    19:00 0°C° 0.1 mm 5 mps 742 mmHg 96%
    20:00 0°C° 0 mm 5 mps 741 mmHg 93%
    21:00 0°C° 0 mm 5 mps 741 mmHg 90%
    22:00 -1°C° 0 mm 5 mps 741 mmHg 87%
    23:00 -1°C° 0 mm 5 mps 740 mmHg 87%

    13 December, Friday

    Time Temperature Precipitation Wind Pressure Humidity
    00:00 -2°C° 0 mm 5 mps 739 mmHg 86%
    01:00 -3°C° 0 mm 6 mps 738 mmHg 86%
    02:00 -3°C° 0 mm 6 mps 736 mmHg 83%
    03:00 -3°C° 0 mm 7 mps 735 mmHg 80%
    04:00 -4°C° 0 mm 8 mps 734 mmHg 77%
    05:00 -4°C° 0 mm 9 mps 732 mmHg 74%
    06:00 -3°C° 0 mm 9 mps 731 mmHg 72%
    07:00 -3°C° 0 mm 10 mps 730 mmHg 69%
    08:00 -3°C° 0.5 mm 10 mps 729 mmHg 77%
    09:00 -4°C° 0.5 mm 10 mps 729 mmHg 86%
    10:00 -4°C° 0.5 mm 10 mps 728 mmHg 94%
    11:00 -2°C° 0.2 mm 8 mps 728 mmHg 93%
    12:00 -2°C° 0.2 mm 7 mps 727 mmHg 93%
    13:00 -1°C° 0.2 mm 6 mps 727 mmHg 93%
    14:00 -1°C° 0.1 mm 6 mps 727 mmHg 92%
    15:00 0°C° 0.1 mm 5 mps 727 mmHg 91%
    16:00 0°C° 0.1 mm 5 mps 728 mmHg 90%
    17:00 -1°C° 0.1 mm 5 mps 727 mmHg 89%
    18:00 -1°C° 0.1 mm 5 mps 727 mmHg 88%
    19:00 -1°C° 0.1 mm 5 mps 727 mmHg 87%
    20:00 -2°C° 0.7 mm 7 mps 726 mmHg 90%
    21:00 -2°C° 0.7 mm 8 mps 726 mmHg 93%
    22:00 -3°C° 0.7 mm 9 mps 725 mmHg 96%
    23:00 -1°C° 1.5 mm 9 mps 725 mmHg 96%
    Show more